Location: LDNL
(36.4545°S, 141.6685°E)
Time: 01:48:19
(UTC+10:00)

X-37B - Visible Passes

Search period start: 27 June 2022 00:00
Search period end: 07 July 2022 00:00
Orbit: 326 x 345 km, 45.0° (Epoch: 25 June)

Date Brightness Start Highest point End Pass type
(mag) Time Alt. Az. Time Alt. Az. Time Alt. Az.
01 Jul 2.9 07:14:17 10° NNW 07:16:48 26° NE 07:19:21 10° E visible
03 Jul 2.6 06:19:36 10° NNW 06:22:07 25° NE 06:24:39 10° E visible
04 Jul 0.4 06:39:50 13° NW 06:42:22 81° NNE 06:45:21 10° ESE visible
05 Jul 3.5 05:28:57 17° E 05:28:57 17° E 05:29:56 10° E visible
05 Jul 1.0 07:00:13 11° W 07:02:49 38° SSW 07:05:38 10° SE visible
06 Jul 2.3 05:49:03 28° ESE 05:49:03 28° ESE 05:50:37 10° ESE visible
